TimeCDT,TemperatureF,Dew PointF,Humidity,Sea Level PressureIn,VisibilityMPH,Wind Direction,Wind SpeedMPH,Gust SpeedMPH,PrecipitationIn,Events,Conditions,WindDirDegrees,DateUTC
12:56 AM,54.0,45.9,74,29.80,10.0,NNE,8.1,-,N/A,,Clear,30,2012-10-02 05:56:00
1:56 AM,52.9,45.9,77,29.80,10.0,NNE,10.4,-,N/A,,Clear,20,2012-10-02 06:56:00
2:56 AM,52.9,46.9,80,29.80,10.0,NNE,8.1,-,N/A,,Clear,30,2012-10-02 07:56:00
3:56 AM,52.9,46.9,80,29.80,10.0,NNE,9.2,-,N/A,,Clear,30,2012-10-02 08:56:00
4:56 AM,50.9,46.9,86,29.81,10.0,North,8.1,-,N/A,,Clear,360,2012-10-02 09:56:00
5:56 AM,50.9,46.9,86,29.82,10.0,NNE,8.1,-,N/A,,Clear,20,2012-10-02 10:56:00
6:56 AM,50.9,47.8,89,29.84,10.0,North,9.2,-,N/A,,Clear,350,2012-10-02 11:56:00
7:56 AM,52.9,48.9,86,29.85,10.0,North,11.5,-,N/A,,Clear,350,2012-10-02 12:56:00
8:56 AM,55.9,50.0,80,29.85,10.0,NNE,12.7,-,N/A,,Clear,20,2012-10-02 13:56:00
9:56 AM,59.9,50.0,70,29.85,10.0,NE,16.1,-,N/A,,Clear,50,2012-10-02 14:56:00
10:56 AM,61.9,48.9,62,29.85,10.0,NE,17.3,-,N/A,,Scattered Clouds,40,2012-10-02 15:56:00
11:56 AM,65.8,47.8,52,29.84,10.0,NNE,17.3,-,N/A,,Partly Cloudy,20,2012-10-02 16:56:00
12:56 PM,66.9,46.9,49,29.83,10.0,North,12.7,-,N/A,,Clear,10,2012-10-02 17:56:00
1:56 PM,68.9,45.0,42,29.81,10.0,NE,15.0,-,0.00,,Scattered Clouds,50,2012-10-02 18:56:00
3:56 PM,68.9,48.9,49,29.81,10.0,ESE,13.8,-,0.00,,Partly Cloudy,120,2012-10-02 20:56:00
4:05 PM,66.2,48.2,52,29.82,10.0,ESE,12.7,-,N/A,,Clear,120,2012-10-02 21:05:00
4:56 PM,63.9,50.0,61,29.82,10.0,East,9.2,-,N/A,,Mostly Cloudy,100,2012-10-02 21:56:00
5:56 PM,61.9,50.0,65,29.84,10.0,East,6.9,-,N/A,,Overcast,90,2012-10-02 22:56:00
6:56 PM,59.9,50.0,70,29.86,10.0,East,8.1,-,N/A,,Overcast,90,2012-10-02 23:56:00
8:56 PM,57.9,52.9,83,29.90,10.0,NE,5.8,-,N/A,,Overcast,50,2012-10-03 01:56:00
9:56 PM,59.0,52.0,78,29.90,8.0,ENE,8.1,-,0.00,Rain,Light Rain,60,2012-10-03 02:56:00
10:09 PM,57.2,53.6,88,29.90,6.0,NE,6.9,-,0.00,Rain,Light Rain,40,2012-10-03 03:09:00
10:56 PM,59.0,52.0,78,29.89,10.0,ENE,8.1,-,0.00,,Overcast,70,2012-10-03 03:56:00
11:56 PM,59.0,52.0,78,29.88,10.0,NNE,8.1,-,N/A,,Overcast,20,2012-10-03 04:56:00